sat.trackr.live / text

‹ back to catalog

ONEWEB-0237

NORAD 48770 · 2021-045D

PAYLOAD ACTIVE UNKNOWN

§ Identity

Operator
Country
UK
Launch date
2021-05-28
Launch site
VOSTO
Launch vehicle
Mass (kg)
RCS (m²)

Purposes: comms

External: N2YO · Heavens-Above · Gunter

§ Orbital elements

Epoch: 2026-05-25T00:46:24.252096Z

Period
109.46 min
Inclination
87.8988°
Eccentricity
0.0001699
Mean motion
13.15550258 rev/d
Perigee alt
1,200.5 km
Apogee alt
1,203.1 km
Semi-major
7,579.9 km
B*
-1.1967e-4
RAAN
263.8199°
Arg perigee
93.3834°
Mean anomaly
266.7490°
Rev number
24,134

§ Raw data

ONEWEB-02371 48770U 21045D   26145.03222514 -.00000032  00000+0 -11967-3 0  99982 48770  87.8988 263.8199 0001699  93.3834 266.7490 13.15550258241342

JSON: /api/v1/satellites/48770 · /tle

For live sub-satellite position, see the globe view (requires WebGL).

§ Visibility from observer

Set your observer location to see the next 7 days of passes ≥ 10°. The values pass through the URL so the page stays shareable.

No JS? Fill the form by hand. The geolocation button needs JavaScript.